Other Surface Observations
Issued by NWS Tucson, AZ

Home | Current Version | Previous Version | Text Only | Print | Product List | Glossary On
Versions: 1 2 3 4 5 6 7 8 9 10 11 12 13 14 15 16 17 18 19 20 21 22 23 24 25 26 27 28 29 30 31 32 33 34 35 36 37 38 39 40 41 42 43 44 45 46 47 48 49 50
000
SXUS55 KTWC 260515
OSOTWC

WEATHER ROUNDUP FOR SOUTHEAST ARIZONA
NATIONAL WEATHER SERVICE TUCSON AZ
1015 PM MST MON MAY 25 2015

AZZ504>506-514-260615-
LOCATION       SKY/WX    TMP DP  RH WIND       PRES   REMARKS
TUCSON         CLEAR     76  35  22 W5        29.97R
DAVIS-MONTHAN  CLEAR     74  36  25 W5        29.95R
CHILDRENS PARK N/A       79  33  19 N5                PIMA CO DEQ
ALVERNON/22ND  N/A      N/A N/A N/A N/A               PIMA CO DEQ
CHERRY/GLENN   N/A      N/A N/A N/A N/A               PIMA CO DEQ
TANGERINE      N/A       76 N/A N/A NE7               PIMA CO DEQ
CONTL RANCH    N/A       78  36  22 NW3               PIMA CO DEQ
GRANT/1ST      N/A       80  34  19 NW4               PIMA CO DEQ
CRAYCROFT/22ND N/A      N/A N/A N/A N/A               PIMA CO DEQ
GOLFLINKS/KOLB N/A      N/A N/A N/A N/A               PIMA CO DEQ
AJO/12TH       N/A       80  34  19 W3                PIMA CO DEQ
SAGUARO EAST   N/A      N/A N/A N/A N/A               PIMA CO DEQ
FAIRGROUNDS    N/A       73 N/A N/A N5                PIMA CO DEQ
SAGUARO        N/A       74  29  19 NE2               *SABINO CYN
SAN CARLOS     N/A       72  36  27 NW3               *SAN CARLOS
GREEN VALLEY   N/A       77  34  21 N3                PIMA CO DEQ
HORSE CAMP CYN N/A       69  35  28 W6G14             *ARAVAIPA CYN
RINCON MTNS    N/A       47  28  48 CALM              *NR MANNING CAMP
$$

AZZ509>511-260615-
LOCATION       SKY/WX    TMP DP  RH WIND       PRES   REMARKS
SAFFORD        CLEAR     72  34  24 NW9       29.95R
STRAY HORSE    N/A       51  31  46 SE3G15            *
TRAIL CABIN    N/A       60  33  36 W5G13             *N OF GRANVILLE
BLACK HILLS    N/A       69  35  29 CALM              *N OF FT THOMAS
DRY LAKE       N/A       51  32  48 N3                *NATANES MTNS
NOON CREEK     N/A       61  33  35 SW6G10            *PINALENO MTNS
COLUMBINE      N/A       37  22  54 CALM              *PINALENO MTNS
GUTHRIE        N/A       61  30  31 W16G25            *SW OF GUTHRIE
$$

AZZ502-503-513-260615-
LOCATION       SKY/WX    TMP DP  RH WIND       PRES   REMARKS
NOGALES        CLEAR     66  23  19 E6        30.04R
SELLS          N/A       72  35  26 W7G15             *
SASABE         N/A       70  37  30 W9G16             *ALTAR VLY
HOPKINS        N/A       54  24  31 W7G11             *SANTA RITA MTNS
CARR CYN       N/A       64  22  20 SW8G16            *W OF HEREFORD
$$

AZZ507-508-512-260615-
LOCATION       SKY/WX    TMP DP  RH WIND       PRES   REMARKS
SIERRA VISTA   CLEAR     66  22  18 W9        30.08R
DOUGLAS        CLEAR     64  24  21 W9        30.04R
EMPIRE MTNS    N/A       60  32  34 SW7G11            *LAS CIENEGAS NCA
MULESHOE RANCH N/A       68  32  26 N6G13             *PRESERVE
HEADQUARTERS   N/A       58  24  27 E4                *CHIRICAHUA MTNS
$$

.............................NOTES.............................
THIS IS AN AUTOMATED COLLECTIVE WITH MINIMAL QUALITY CONTROL.
PIMA CO DEQ SITES HAVE NONSTANDARD WIND SENSOR HEIGHTS.
PIMA CO DEQ SITES DO NOT REPORT WIND GUSTS.
* INDICATES WIND SENSORS LOCATED AT 20 FEET INSTEAD OF 33 FEET.
..............................KEY..............................
SKY/WX - SKY CONDITION/WEATHER
TMP    - TEMPERATURE IN FAHRENHEIT
DP     - DEWPOINT IN FAHRENHEIT
RH     - RELATIVE HUMIDITY IN PERCENT
WIND   - DIRECTION AND SPEED IN MILES PER HOUR (MPH)
VRB    - VARIABLE WIND DIRECTION
PRES   - MEAN SEA LEVEL PRESSURE IN INCHES OF MERCURY
         F - FALLING PRESSURE   R - RISING PRESSURE
         S - STEADY PRESSURE
VSB    - VISIBILITY IN MILES
HX     - HEAT INDEX IN FAHRENHEIT
WCI    - WIND CHILL INDEX IN FAHRENHEIT
N/A    - NOT AVAILABLE
AFB    - AIR FORCE BASE
         DAVIS-MONTHAN IS DAVIS-MONTHAN AIR FORCE BASE
CYN    - CANYON
MTNS   - MOUNTAINS
NCA    - NATIONAL CONSERVATION AREA
NR     - NEAR
VLY    - VALLEY
CONTL  - CONTINENTAL
PIMA CO DEQ - PIMA COUNTY DEPT OF ENVIRONMENTAL QUALITY



USA.gov is the U.S. government's official web portal to all federal, state and local government web resources and services.